ICEYE-X11 (48918 NORAD) Tracking and Keplerian Element Data

This shows tracking and keplerian element data for the satellite.

Feedback or suggestion? Click here.




ElementValue
Catalog48918
NameICEYE-X11
Epoch Orbit1684
Epoch Day288.2258719
Epoch Year2021
RAAN55.5077
Inclination97.5258
Eccentricity0.0011792
Argument of Perigee214.3589
Mean Anonmoly262.6606
Mean Motion15.131357
Decay Rate3.12E-05
L11 48918U 21059AR 21288.22587190 .00003120 00000-0 17953-3 0 9996
L22 48918 97.5258 55.5077 0011792 214.3589 262.6606 15.13135700 16842

Live tracking and technical data element details for ICEYE-X11 (NORAD 48918). ICEYE-X11 can be tracked NOW for your location showing map with azimuth and elevation plus other details from your city location.

Track the satellite on the map from your city or location and see movement details for azimuth, elevation, latitude, longitude, range, height, and movement on the map or in text.







IsCatalogInMostPopularTable: catalog: 48918, numindb: 22
Update: records affected: 1



GetName: 48918 ICEYE-X11

Hit Count: updated at: Tue, 19 Oct 2021 08:34:08 GMT